Location: Marysville Observatory
(48.1092°N, 122.1645°W)
Time: 02:46:37
(UTC-07:00)

Amateur Radio Satellites - All Passes

Search period start: 03 June 2015 02:16
Search period end: 04 June 2015 02:16
Location: Marysville Observatory, 48.1092°N, 122.1645°W

Satellite Date Start Highest point End Downlink Frequencies (MHz)
Time Altitude Azimuth
BEESAT 2 03 Jun 02:20:53 02:24:00 21° 245° (WSW) 02:27:00 435.950
Oscar 19 03 Jun 02:33:13 02:38:19 57° 101° (E) 02:43:22 437.125/150
KKS-1 03 Jun 02:35:31 02:39:46 45° 70° (ENE) 02:44:06 437.445
PHONESAT 2.4 03 Jun 02:42:46 02:45:39 23° 181° (S) 02:48:30 2401.200-2431.200
ISS 03 Jun 02:44:05 02:47:20 70° 207° (SSW) 02:50:35 145.825
Gurwin Techsat 1B 03 Jun 02:50:05 02:54:28 26° 92° (E) 02:58:56 435.225
SO-50 03 Jun 02:56:43 03:01:25 58° 314° (NW) 03:06:17 436.795
AIST 2 03 Jun 03:01:38 03:05:14 27° 243° (WSW) 03:08:45 435.215
ITUPSAT 1 03 Jun 03:02:25 03:06:18 24° 268° (W) 03:10:08 437.325
BEESAT 03 Jun 03:05:03 03:08:50 22° 269° (W) 03:12:30 436.000
ITAMSAT 1 03 Jun 03:05:04 03:09:50 35° 96° (E) 03:14:37 435.822/435.867
SWISSCUBE 03 Jun 03:15:40 03:18:51 17° 271° (W) 03:21:52 437.505
STARS 03 Jun 03:19:46 03:24:13 79° 75° (ENE) 03:28:42 437.465
Cosmos 2499 03 Jun 03:20:51 03:26:55 31° 274° (W) 03:32:58 435.465 / 435.565
MOZHAYETS 4 03 Jun 03:27:16 03:30:04 17° 60° (ENE) 03:32:58
Cosmos 2491 03 Jun 03:36:29 03:39:52 13° 43° (NE) 03:43:44 435.465 / 435.565
AO-7 03 Jun 03:41:33 03:46:40 18° 85° (E) 03:52:11 29.400- 29.500
PCSat 03 Jun 04:05:20 04:06:13 10° 354° (N) 04:07:03 145.827
KKS-1 03 Jun 04:13:06 04:16:39 22° 268° (W) 04:20:09 437.445
Oscar 19 03 Jun 04:13:16 04:17:20 24° 299° (WNW) 04:21:17 437.125/150
PHONESAT 2.4 03 Jun 04:20:52 04:23:07 16° 197° (SSW) 04:25:20 2401.200-2431.200
ISS 03 Jun 04:21:33 04:23:18 14° 224° (SW) 04:24:57 145.825
Gurwin Techsat 1B 03 Jun 04:29:36 04:34:45 50° 291° (WNW) 04:39:52 435.225
JAS-2 03 Jun 04:34:33 04:39:30 42° 98° (E) 04:44:43 435.910
SO-50 03 Jun 04:39:40 04:43:00 18° 337° (NNW) 04:46:19 436.795
ITAMSAT 1 03 Jun 04:44:33 04:49:22 37° 294° (WNW) 04:54:08 435.822/435.867
HORYU 2 03 Jun 04:53:49 04:58:13 61° 101° (ESE) 05:02:36 437.375
STARS 03 Jun 04:59:12 05:01:18 13° 273° (W) 05:03:12 437.465
MOZHAYETS 4 03 Jun 05:02:16 05:06:49 70° 258° (WSW) 05:11:24
CUBESAT XI-V 03 Jun 05:27:38 05:31:12 23° 64° (ENE) 05:34:55 437.345
Cosmos 2491 03 Jun 05:31:08 05:39:40 50° 71° (ENE) 05:48:09 435.465 / 435.565
AO-7 03 Jun 05:32:37 05:41:02 77° 107° (ESE) 05:49:26 29.400- 29.500
PCSat 03 Jun 05:49:31 05:52:08 14° 20° (NNE) 05:54:52 145.827
AIST 1 03 Jun 05:54:58 05:57:29 15° 63° (ENE) 06:00:08
CUTE-I 03 Jun 06:18:11 06:21:28 17° 87° (E) 06:24:58 437.470
JAS-2 03 Jun 06:20:05 06:24:35 30° 296° (WNW) 06:29:11 435.910
SO-50 03 Jun 06:23:46 06:25:29 12° 1° (N) 06:27:14 436.795
YUBILEINY 03 Jun 06:24:23 06:32:05 38° 85° (E) 06:39:55 435.215
M-CUBED/EXP-1 PRIME 03 Jun 06:27:28 06:30:16 20° 60° (ENE) 06:32:59 437.505
AUBIESAT-1 03 Jun 06:28:00 06:30:32 18° 60° (ENE) 06:33:02 437.475
HORYU 2 03 Jun 06:31:27 06:34:28 18° 299° (WNW) 06:37:23 437.375
PRISM 03 Jun 06:33:01 06:36:51 40° 69° (ENE) 06:40:44 437.425
Cubesat XI-IV 03 Jun 06:40:34 06:44:59 26° 92° (E) 06:49:29 437.490
STRAND 1 03 Jun 06:45:17 06:50:14 54° 70° (ENE) 06:55:15 437.568
CUBESAT XI-V 03 Jun 07:03:55 07:08:23 48° 261° (W) 07:12:55 437.345
AO-7 03 Jun 07:26:05 07:33:14 32° 308° (NW) 07:40:13 29.400- 29.500
Cosmos 2491 03 Jun 07:28:18 07:36:31 44° 273° (W) 07:44:34 435.465 / 435.565
AIST 1 03 Jun 07:31:18 07:35:41 66° 264° (W) 07:40:03
PCSat 03 Jun 07:32:08 07:37:11 38° 44° (NE) 07:42:14 145.827
RS-15 03 Jun 07:53:23 08:03:30 48° 113° (ESE) 08:14:02 29.354- 29.394
CUTE-I 03 Jun 07:56:52 08:02:16 79° 288° (WNW) 08:07:39 437.470
M-CUBED/EXP-1 PRIME 03 Jun 08:01:19 08:04:59 38° 255° (WSW) 08:08:24 437.505
AUBIESAT-1 03 Jun 08:01:26 08:05:08 44° 254° (WSW) 08:08:35 437.475
SO-50 03 Jun 08:04:29 08:07:57 19° 25° (NNE) 08:11:29 436.795
PRISM 03 Jun 08:09:21 08:12:30 21° 268° (W) 08:15:36 437.425
GOMX 1 03 Jun 08:10:48 08:13:05 13° 82° (E) 08:15:34 467.674
Cosmos 2504 03 Jun 08:14:48 08:19:41 19° 79° (E) 08:24:43 435.465 / 435.565
YUBILEINY 03 Jun 08:20:05 08:28:40 57° 287° (WNW) 08:37:13 435.215
Cubesat XI-IV 03 Jun 08:20:11 08:25:24 52° 291° (WNW) 08:30:35 437.490
STRAND 1 03 Jun 08:25:47 08:29:50 23° 269° (W) 08:33:47 437.568
DOVE 4 03 Jun 08:31:47 08:33:49 13° 83° (E) 08:36:01 437.250
BRITE-PL 03 Jun 08:48:29 08:53:48 44° 95° (E) 08:58:48 437.365/2234.400
HO-68 03 Jun 08:53:53 08:59:41 27° 91° (E) 09:05:38 435.675
CANX-2 03 Jun 08:55:10 08:58:08 19° 90° (E) 09:01:11 2200.000
CUTE 1.7 + AOD 2 03 Jun 08:57:29 09:00:21 18° 90° (E) 09:03:20 437.475
SEEDS 03 Jun 09:06:55 09:09:50 19° 90° (E) 09:12:51 437.485
COMPASS 1 03 Jun 09:07:07 09:09:30 15° 88° (E) 09:12:01 437.405
AAUSAT CUBESAT 2 03 Jun 09:12:08 09:14:25 15° 88° (E) 09:16:52 437.432
PCSat 03 Jun 09:15:34 09:20:44 44° 244° (WSW) 09:25:50 145.827
AO-7 03 Jun 09:21:53 09:23:28 11° 333° (NNW) 09:24:46 29.400- 29.500
TIGRISAT 03 Jun 09:27:33 09:30:21 17° 61° (ENE) 09:33:16 435.000
Oscar 11 03 Jun 09:37:01 09:39:02 13° 87° (E) 09:41:14 145.826/435.025
CUTE-I 03 Jun 09:38:36 09:41:36 15° 305° (NW) 09:44:23 437.470
SO-50 03 Jun 09:44:32 09:49:29 62° 47° (NE) 09:54:23 436.795
GOMX 1 03 Jun 09:46:51 09:52:11 89° 120° (ESE) 09:57:07 467.674
QB50P1 03 Jun 09:49:22 09:51:07 13° 59° (ENE) 09:53:03 145.935-145.965
UNISAT 6 03 Jun 09:50:32 09:54:20 26° 65° (ENE) 09:58:09 437.425
POLYITAN 1 03 Jun 09:55:27 09:57:45 15° 60° (ENE) 10:00:12 437.675
Cosmos 2504 03 Jun 10:04:09 10:12:14 87° 98° (E) 10:19:46 435.465 / 435.565
RS-15 03 Jun 10:04:49 10:15:41 63° 319° (NW) 10:26:58 29.354- 29.394
DOVE 4 03 Jun 10:07:26 10:12:29 88° 282° (WNW) 10:17:11 437.250
NANOSAT C BR1 03 Jun 10:15:51 10:19:04 21° 64° (ENE) 10:22:22 145.865
CUBEBUG 2 03 Jun 10:17:23 10:21:15 30° 94° (E) 10:25:02 437.445
DELFI C3 03 Jun 10:18:01 10:21:17 24° 93° (E) 10:24:37 145.870
BUGSAT 1 03 Jun 10:21:00 10:23:42 17° 61° (ENE) 10:26:32 437.445
CINEMA 3 03 Jun 10:21:28 10:26:06 65° 101° (E) 10:30:27 145.822/145.860
YUBILEINY 03 Jun 10:23:24 10:28:03 14° 314° (NW) 10:32:16 435.215
BRITE-PL 03 Jun 10:27:13 10:32:09 32° 296° (WNW) 10:36:46 437.365/2234.400
QB50P2 03 Jun 10:29:38 10:33:19 29° 67° (ENE) 10:37:05 145.880/145.840
CANX-2 03 Jun 10:30:17 10:34:21 47° 289° (WNW) 10:38:23 2200.000
CUTE 1.7 + AOD 2 03 Jun 10:32:30 10:36:35 49° 289° (WNW) 10:40:39 437.475
ANTELSAT 03 Jun 10:33:13 10:37:47 64° 73° (ENE) 10:42:19 437.575/2403.000
FUNcube-1 03 Jun 10:34:28 10:38:09 28° 94° (E) 10:41:48 145.935
DUCHIFAT 1 03 Jun 10:34:34 10:38:19 31° 67° (ENE) 10:42:07 145.980
POPSAT HIP 1 03 Jun 10:39:28 10:43:22 35° 68° (ENE) 10:47:19 437.405
HO-68 03 Jun 10:40:57 10:48:05 70° 292° (WNW) 10:55:10 435.675
COMPASS 1 03 Jun 10:41:30 10:45:36 57° 287° (WNW) 10:49:40 437.405
SEEDS 03 Jun 10:41:53 10:45:55 47° 289° (WNW) 10:49:56 437.485
AAUSAT CUBESAT 2 03 Jun 10:46:23 10:50:28 59° 287° (WNW) 10:54:32 437.432
UWE-3 03 Jun 10:46:48 10:51:00 48° 99° (E) 10:55:06 435.000/436.395/437.385
CUSAT 1 03 Jun 10:49:17 10:54:08 18° 79° (E) 10:59:23 437.405
GONETS M04 03 Jun 10:59:04 11:03:02 15° 73° (ENE) 11:07:34
TIGRISAT 03 Jun 11:02:01 11:06:39 71° 258° (WSW) 11:11:13 435.000
UKube-1 03 Jun 11:02:55 11:06:29 25° 93° (E) 11:10:08 .
AISAT 03 Jun 11:09:44 11:12:47 18° 90° (E) 11:15:57 437.250
Oscar 11 03 Jun 11:11:28 11:15:47 70° 286° (WNW) 11:20:03 145.826/435.025
ESTCUBE 1 03 Jun 11:11:54 11:13:29 12° 85° (E) 11:15:19 437.505/2401.250
DANDE 03 Jun 11:13:45 11:19:23 22° 80° (E) 11:25:31 436.750
ZACube-1 03 Jun 11:18:21 11:22:39 82° 103° (ESE) 11:26:50 437.345
QB50P1 03 Jun 11:22:05 11:26:23 88° 254° (WSW) 11:30:44 145.935-145.965
DX 1 03 Jun 11:23:49 11:28:01 42° 98° (E) 11:32:12 434.975-435.025
SO-50 03 Jun 11:25:44 11:29:42 24° 246° (WSW) 11:33:31 436.795
GOMX 1 03 Jun 11:26:20 11:29:33 16° 303° (WNW) 11:32:31 467.674
UNISAT 6 03 Jun 11:26:35 11:30:58 40° 262° (W) 11:35:17 437.425
POLYITAN 1 03 Jun 11:28:49 11:33:09 75° 257° (WSW) 11:37:30 437.675
HUMSAT D 03 Jun 11:39:41 11:43:49 65° 101° (E) 11:47:53 437.325/437.525
CUBEBUG 1 03 Jun 11:44:58 11:48:23 22° 91° (E) 11:51:52 437.445
DOVE 4 03 Jun 11:46:44 11:49:28 14° 304° (WNW) 11:51:57 437.250
NANOSAT C BR1 03 Jun 11:50:30 11:54:38 46° 261° (W) 11:58:48 145.865
DELFI C3 03 Jun 11:52:49 11:56:29 33° 291° (WNW) 12:00:06 145.870
CUBEBUG 2 03 Jun 11:54:04 11:57:56 30° 293° (WNW) 12:01:39 437.445
BUGSAT 1 03 Jun 11:54:35 11:58:45 60° 259° (W) 12:02:59 437.445
CINEMA 3 03 Jun 11:59:44 12:02:48 17° 300° (WNW) 12:05:39 145.822/145.860
Cosmos 2504 03 Jun 12:00:42 12:06:43 22° 301° (WNW) 12:12:15 435.465 / 435.565
QB50P2 03 Jun 12:05:16 12:09:10 32° 264° (W) 12:13:03 145.880/145.840
DUCHIFAT 1 03 Jun 12:10:18 12:14:07 30° 265° (W) 12:17:55 145.980
VELOX 1 03 Jun 12:10:29 12:14:59 67° 103° (ESE) 12:19:25 145.980
FUNcube-1 03 Jun 12:10:43 12:14:31 31° 293° (WNW) 12:18:12 145.935
ANTELSAT 03 Jun 12:12:03 12:15:02 16° 271° (W) 12:17:50 437.575/2403.000
50 SAT 03 Jun 12:13:21 12:17:14 86° 103° (ESE) 12:21:05 437.505
POPSAT HIP 1 03 Jun 12:15:38 12:19:19 27° 266° (W) 12:22:58 437.405
Oscar 19 03 Jun 12:16:19 12:19:56 20° 59° (ENE) 12:23:41 437.125/150
RS-15 03 Jun 12:20:47 12:30:45 35° 350° (N) 12:41:06 29.354- 29.394
UWE-3 03 Jun 12:24:02 12:27:14 20° 297° (WNW) 12:30:17 435.000/436.395/437.385
CUSAT 1 03 Jun 12:27:39 12:35:43 72° 98° (E) 12:43:52 437.405
HO-68 03 Jun 12:30:05 12:34:44 18° 312° (NW) 12:39:07 435.675
UKube-1 03 Jun 12:38:42 12:42:46 38° 292° (WNW) 12:46:47 .
Gurwin Techsat 1B 03 Jun 12:39:36 12:40:41 11° 51° (NE) 12:42:02 435.225
AISAT 03 Jun 12:45:21 12:49:45 55° 289° (WNW) 12:54:08 437.250
ESTCUBE 1 03 Jun 12:46:30 12:51:05 86° 285° (WNW) 12:55:38 437.505/2401.250
GONETS M04 03 Jun 12:49:36 12:58:17 66° 93° (E) 13:07:02
ITAMSAT 1 03 Jun 12:50:33 12:52:56 14° 54° (NE) 12:55:32 435.822/435.867
DANDE 03 Jun 12:53:25 13:01:33 82° 99° (E) 13:10:10 436.750
ZACube-1 03 Jun 12:56:24 12:58:25 13° 301° (WNW) 13:00:17 437.345
AO-7 03 Jun 12:57:59 13:00:47 12° 31° (NNE) 13:03:55 29.400- 29.500
DX 1 03 Jun 13:00:30 13:04:03 24° 296° (WNW) 13:07:31 434.975-435.025
HUMSAT D 03 Jun 13:16:40 13:19:07 15° 299° (WNW) 13:21:25 437.325/437.525
TISAT 1 03 Jun 13:16:45 13:20:45 38° 97° (E) 13:24:44 437.305
CUBEBUG 1 03 Jun 13:20:43 13:25:00 45° 290° (WNW) 13:29:13 437.445
SPROUT 03 Jun 13:26:34 13:30:55 68° 102° (ESE) 13:35:12 437.525
SWISSCUBE 03 Jun 13:34:16 13:36:18 13° 86° (E) 13:38:34 437.505
VELOX 1 03 Jun 13:48:08 13:51:04 17° 300° (WNW) 13:53:53 145.980
50 SAT 03 Jun 13:50:22 13:51:22 11° 301° (WNW) 13:52:11 437.505
Oscar 19 03 Jun 13:53:37 13:58:48 71° 257° (WSW) 14:04:02 437.125/150
O/OREOS (USA 219) 03 Jun 14:03:35 14:07:21 27° 105° (ESE) 14:11:11 437.305
Cosmos 2499 03 Jun 14:08:09 14:15:10 40° 89° (E) 14:21:52 435.465 / 435.565
CUSAT 1 03 Jun 14:11:45 14:19:06 34° 298° (WNW) 14:26:13 437.405
Gurwin Techsat 1B 03 Jun 14:14:30 14:19:41 57° 70° (ENE) 14:24:54 435.225
HORYU 2 03 Jun 14:21:55 14:23:48 13° 57° (ENE) 14:25:50 437.375
ESTCUBE 1 03 Jun 14:25:14 14:27:19 13° 302° (WNW) 14:29:13 437.505/2401.250
ITAMSAT 1 03 Jun 14:26:29 14:31:39 75° 73° (ENE) 14:36:53 435.822/435.867
RS-15 03 Jun 14:36:14 14:46:49 42° 23° (NNE) 14:57:56 29.354- 29.394
DANDE 03 Jun 14:38:36 14:45:48 30° 301° (WNW) 14:52:59 436.750
AO-7 03 Jun 14:43:59 14:51:20 38° 55° (NE) 14:58:50 29.400- 29.500
GONETS M04 03 Jun 14:47:57 14:55:52 34° 297° (WNW) 15:03:39
JAS-2 03 Jun 14:51:05 14:56:07 30° 64° (ENE) 15:00:51 435.910
TISAT 1 03 Jun 14:52:52 14:56:22 24° 295° (WNW) 14:59:46 437.305
ITUPSAT 1 03 Jun 14:58:04 15:02:52 68° 102° (ESE) 15:07:39 437.325
BEESAT 03 Jun 15:00:10 15:04:58 72° 102° (ESE) 15:09:44 436.000
SPROUT 03 Jun 15:03:51 15:06:31 16° 299° (WNW) 15:09:04 437.525
STARS 03 Jun 15:08:20 15:09:33 11° 85° (E) 15:11:00 437.465
SWISSCUBE 03 Jun 15:10:05 15:14:54 86° 289° (WNW) 15:19:43 437.505
Oscar 19 03 Jun 15:38:36 15:39:15 10° 278° (W) 15:39:33 437.125/150
O/OREOS (USA 219) 03 Jun 15:42:26 15:46:39 38° 304° (NW) 15:50:52 437.305
HORYU 2 03 Jun 15:55:20 15:59:49 87° 68° (ENE) 16:04:18 437.375
Gurwin Techsat 1B 03 Jun 15:55:52 16:00:05 23° 270° (W) 16:04:11 435.225
KKS-1 03 Jun 15:59:20 16:03:46 56° 100° (E) 16:08:09 437.445
Cosmos 2499 03 Jun 16:00:54 16:08:17 46° 289° (WNW) 16:15:12 435.465 / 435.565
ITAMSAT 1 03 Jun 16:08:27 16:11:50 17° 272° (W) 16:15:01 435.822/435.867
BEESAT 2 03 Jun 16:17:03 16:20:37 30° 118° (ESE) 16:24:17 435.950
YUBILEINY 03 Jun 16:29:22 16:35:54 24° 56° (NE) 16:42:42 435.215
Cubesat XI-IV 03 Jun 16:30:39 16:32:02 11° 51° (NE) 16:33:41 437.490
JAS-2 03 Jun 16:35:13 16:41:09 49° 261° (W) 16:46:29 435.910
AO-7 03 Jun 16:35:35 16:43:49 63° 256° (WSW) 16:52:06 29.400- 29.500
ITUPSAT 1 03 Jun 16:36:58 16:40:18 19° 300° (WNW) 16:43:31 437.325
BEESAT 03 Jun 16:39:08 16:42:19 18° 301° (WNW) 16:45:23 436.000
STARS 03 Jun 16:42:16 16:46:44 86° 285° (WNW) 16:51:08 437.465
RS-15 03 Jun 16:49:18 17:00:56 88° 53° (NE) 17:13:04 29.354- 29.394
SWISSCUBE 03 Jun 16:49:37 16:52:07 14° 303° (WNW) 16:54:26 437.505
BEESAT 3 03 Jun 16:53:36 16:57:42 79° 126° (SE) 17:01:50 437.485
MOZHAYETS 4 03 Jun 16:54:21 16:57:50 22° 91° (E) 17:01:25
AIST 2 03 Jun 17:02:33 17:06:06 26° 116° (ESE) 17:09:43 435.215
HORYU 2 03 Jun 17:35:40 17:37:11 11° 274° (W) 17:38:27 437.375
KKS-1 03 Jun 17:36:47 17:40:03 20° 298° (WNW) 17:43:12 437.445
CUTE-I 03 Jun 17:43:04 17:47:56 38° 66° (ENE) 17:52:53 437.470
BEESAT 2 03 Jun 17:54:44 17:58:38 38° 317° (NW) 18:02:33 435.950
Cubesat XI-IV 03 Jun 18:05:58 18:11:10 59° 70° (ENE) 18:16:26 437.490
STARS 03 Jun 18:20:38 18:22:32 12° 303° (WNW) 18:24:17 437.465
YUBILEINY 03 Jun 18:25:27 18:34:13 88° 81° (E) 18:42:57 435.215
BRITE-PL 03 Jun 18:27:06 18:29:43 14° 54° (NE) 18:32:36 437.365/2234.400
MOZHAYETS 4 03 Jun 18:30:56 18:35:21 47° 289° (WNW) 18:39:44
BEESAT 3 03 Jun 18:33:04 18:36:11 20° 327° (NNW) 18:39:15 437.485
AO-7 03 Jun 18:34:40 18:38:37 13° 279° (W) 18:42:00 29.400- 29.500
Cosmos 2491 03 Jun 18:36:42 18:44:59 50° 89° (E) 18:53:25 435.465 / 435.565
AIST 2 03 Jun 18:40:23 18:44:30 45° 315° (NW) 18:48:39 435.215
STRAND 1 03 Jun 18:53:42 18:56:12 14° 86° (E) 18:58:58 437.568
CUBESAT XI-V 03 Jun 18:56:56 19:01:11 33° 95° (E) 19:05:28 437.345
RS-15 03 Jun 19:02:34 19:12:19 31° 254° (WSW) 19:21:59 29.354- 29.394
GOMX 1 03 Jun 19:21:05 19:25:16 24° 61° (ENE) 19:29:37 467.674
CUTE-I 03 Jun 19:23:14 19:28:05 35° 265° (W) 19:32:56 437.470
HO-68 03 Jun 19:26:32 19:32:35 32° 57° (ENE) 19:38:45 435.675
BEESAT 2 03 Jun 19:36:16 19:37:51 12° 339° (NNW) 19:39:21 435.950
DOVE 4 03 Jun 19:39:30 19:43:31 23° 62° (ENE) 19:47:39 437.250
PRISM 03 Jun 19:46:50 19:50:47 40° 98° (E) 19:54:46 437.425
Cubesat XI-IV 03 Jun 19:47:32 19:51:43 22° 270° (W) 19:55:48 437.490
CINEMA 3 03 Jun 19:51:34 19:54:17 15° 59° (ENE) 19:57:10 145.822/145.860
CANX-2 03 Jun 19:51:39 19:54:54 22° 65° (ENE) 19:58:15 2200.000
Cosmos 2504 03 Jun 19:52:27 19:59:00 37° 68° (ENE) 20:05:40 435.465 / 435.565
CUTE 1.7 + AOD 2 03 Jun 19:53:54 19:57:06 22° 64° (ENE) 20:00:22 437.475
BRITE-PL 03 Jun 20:01:50 20:07:14 68° 73° (ENE) 20:12:56 437.365/2234.400
COMPASS 1 03 Jun 20:01:58 20:04:43 18° 63° (ENE) 20:07:36 437.405
SEEDS 03 Jun 20:02:32 20:05:43 22° 65° (ENE) 20:08:59 437.485
AIST 1 03 Jun 20:04:11 20:08:25 60° 95° (E) 20:12:42
AAUSAT CUBESAT 2 03 Jun 20:06:33 20:09:14 17° 63° (ENE) 20:12:01 437.432
AIST 2 03 Jun 20:22:01 20:24:09 13° 337° (NNW) 20:26:12 435.215
YUBILEINY 03 Jun 20:23:39 20:30:01 22° 282° (WNW) 20:36:02 435.215
STRAND 1 03 Jun 20:31:01 20:36:13 88° 289° (WNW) 20:41:24 437.568
Cosmos 2491 03 Jun 20:33:41 20:42:04 45° 292° (WNW) 20:50:25 435.465 / 435.565
CUBESAT XI-V 03 Jun 20:34:23 20:38:38 33° 293° (WNW) 20:42:48 437.345
Oscar 11 03 Jun 20:35:10 20:38:00 18° 62° (ENE) 20:40:57 145.826/435.025
ZACube-1 03 Jun 20:43:40 20:46:00 14° 60° (ENE) 20:48:28 437.345
GOMX 1 03 Jun 20:57:35 21:02:56 64° 259° (W) 21:08:27 467.674
ISS 03 Jun 21:01:41 21:04:28 26° 143° (SE) 21:07:16 145.825
DELFI C3 03 Jun 21:08:56 21:12:12 25° 66° (ENE) 21:15:32 145.870
AUBIESAT-1 03 Jun 21:12:42 21:16:01 68° 108° (ESE) 21:19:26 437.475
HO-68 03 Jun 21:12:46 21:19:55 66° 257° (WSW) 21:27:05 435.675
M-CUBED/EXP-1 PRIME 03 Jun 21:13:08 21:16:28 81° 107° (ESE) 21:19:53 437.505
DOVE 4 03 Jun 21:15:35 21:20:50 64° 260° (W) 21:26:09 437.250
CUBEBUG 2 03 Jun 21:18:29 21:22:56 42° 70° (ENE) 21:27:21 437.445
PRISM 03 Jun 21:22:43 21:26:03 23° 296° (WNW) 21:29:18 437.425
CUSAT 1 03 Jun 21:23:31 21:26:34 14° 45° (NE) 21:29:33 437.405
CINEMA 3 03 Jun 21:25:48 21:30:51 89° 81° (E) 21:35:52 145.822/145.860
CANX-2 03 Jun 21:26:36 21:30:38 41° 262° (W) 21:34:41 2200.000
CUTE 1.7 + AOD 2 03 Jun 21:28:43 21:32:47 43° 262° (W) 21:36:50 437.475
FUNcube-1 03 Jun 21:33:15 21:37:25 37° 69° (ENE) 21:41:34 145.935
COMPASS 1 03 Jun 21:35:59 21:40:04 53° 260° (W) 21:44:09 437.405
SEEDS 03 Jun 21:37:18 21:41:18 42° 262° (W) 21:45:19 437.485
VELOX 1 03 Jun 21:37:48 21:39:51 13° 58° (ENE) 21:42:06 145.980
AAUSAT CUBESAT 2 03 Jun 21:40:25 21:44:29 55° 260° (W) 21:48:34 437.432
BRITE-PL 03 Jun 21:42:11 21:46:21 21° 273° (W) 21:50:28 437.365/2234.400
AIST 1 03 Jun 21:43:49 21:46:33 16° 296° (WNW) 21:49:10
Cosmos 2504 03 Jun 21:45:49 21:52:38 47° 270° (W) 21:59:27 435.465 / 435.565
UWE-3 03 Jun 21:46:48 21:51:25 64° 73° (ENE) 21:55:57 435.000/436.395/437.385
DANDE 03 Jun 21:51:16 21:56:11 19° 50° (NE) 22:00:36 436.750
UKube-1 03 Jun 22:01:01 22:04:56 34° 67° (ENE) 22:08:53 .
Oscar 11 03 Jun 22:09:32 22:13:48 58° 259° (W) 22:18:05 145.826/435.025
AISAT 03 Jun 22:10:46 22:14:28 26° 65° (ENE) 22:18:15 437.250
STRAND 1 03 Jun 22:11:42 22:14:46 16° 304° (WNW) 22:17:39 437.568
ESTCUBE 1 03 Jun 22:14:34 22:17:34 18° 61° (ENE) 22:20:42 437.505/2401.250
ZACube-1 03 Jun 22:17:14 22:21:49 83° 257° (WSW) 22:26:20 437.345
PCSat 03 Jun 22:20:20 22:22:50 14° 105° (ESE) 22:25:37 145.827
DX 1 03 Jun 22:22:38 22:26:55 59° 72° (ENE) 22:31:16 434.975-435.025
O/OREOS (USA 219) 03 Jun 22:30:51 22:33:37 16° 44° (NE) 22:36:30 437.305
HUMSAT D 03 Jun 22:34:30 22:38:47 73° 75° (ENE) 22:43:03 437.325/437.525
ISS 03 Jun 22:37:26 22:40:41 70° 340° (NNW) 22:43:56 145.825
Cosmos 2491 03 Jun 22:39:20 22:42:07 11° 320° (NW) 22:44:24 435.465 / 435.565
DELFI C3 03 Jun 22:43:32 22:47:13 33° 264° (W) 22:50:52 145.870
CUBEBUG 1 03 Jun 22:44:28 22:48:13 28° 66° (ENE) 22:52:03 437.445
AUBIESAT-1 03 Jun 22:49:28 22:50:26 11° 305° (NW) 22:51:16 437.475
TIGRISAT 03 Jun 22:51:15 22:54:09 18° 89° (E) 22:57:07 435.000
SPROUT 03 Jun 22:51:31 22:52:50 11° 58° (ENE) 22:54:19 437.525
BEESAT 2 03 Jun 22:55:19 22:57:39 15° 26° (NNE) 23:00:03 435.950
GONETS M04 03 Jun 22:55:30 23:03:36 40° 66° (ENE) 23:11:43
CUBEBUG 2 03 Jun 22:55:47 22:59:47 26° 268° (W) 23:03:39 437.445
50 SAT 03 Jun 23:01:01 23:04:59 80° 75° (ENE) 23:08:57 437.505
CUSAT 1 03 Jun 23:04:35 23:11:12 65° 73° (ENE) 23:16:08 437.405
QB50P1 03 Jun 23:05:42 23:07:14 12° 86° (E) 23:09:00 145.935-145.965
HO-68 03 Jun 23:06:04 23:09:16 13° 279° (W) 23:11:59 435.675
CINEMA 3 03 Jun 23:06:13 23:08:47 13° 275° (W) 23:11:05 145.822/145.860
FUNcube-1 03 Jun 23:09:56 23:13:50 27° 267° (W) 23:17:39 145.935
VELOX 1 03 Jun 23:11:20 23:15:48 88° 255° (WSW) 23:20:19 145.980
POLYITAN 1 03 Jun 23:12:10 23:14:25 14° 88° (E) 23:16:49 437.675
UNISAT 6 03 Jun 23:15:02 23:18:54 31° 95° (E) 23:22:44 437.425
UWE-3 03 Jun 23:25:19 23:28:23 17° 272° (W) 23:31:16 435.000/436.395/437.385
BEESAT 3 03 Jun 23:31:36 23:35:02 25° 37° (NE) 23:38:27 437.485
NANOSAT C BR1 03 Jun 23:32:17 23:35:35 22° 92° (E) 23:38:57 145.865
DANDE 03 Jun 23:33:40 23:41:02 84° 78° (ENE) 23:46:32 436.750
BUGSAT 1 03 Jun 23:34:21 23:36:59 16° 89° (E) 23:39:44 437.445
UKube-1 03 Jun 23:37:21 23:41:06 28° 265° (W) 23:44:51 .
AIST 2 03 Jun 23:42:39 23:45:00 14° 25° (NNE) 23:47:25 435.215
VERMONT LUNAR 03 Jun 23:42:44 23:44:59 17° 168° (SSE) 23:47:15 437.305
AISAT 03 Jun 23:46:42 23:50:54 39° 263° (W) 23:55:08 437.250
QB50P2 03 Jun 23:46:46 23:50:35 31° 95° (E) 23:54:24 145.880/145.840
ESTCUBE 1 03 Jun 23:49:35 23:54:02 61° 259° (W) 23:58:32 437.505/2401.250
DUCHIFAT 1 03 Jun 23:51:04 23:54:56 33° 96° (E) 23:58:47 145.980
Cosmos 2499 03 Jun 23:54:50 23:59:03 17° 55° (NE) 00:03:35 435.465 / 435.565
POPSAT HIP 1 03 Jun 23:56:35 00:00:35 38° 97° (E) 00:04:34 437.405
ANTELSAT 03 Jun 23:58:23 00:02:45 86° 104° (ESE) 00:07:01 437.575/2403.000
ZACube-1 03 Jun 23:58:32 23:58:58 10° 276° (W) 23:59:07 437.345
PCSat 04 Jun 00:00:05 00:05:30 82° 123° (ESE) 00:10:59 145.827
DX 1 04 Jun 00:00:44 00:03:37 17° 271° (W) 00:06:21 434.975-435.025
O/OREOS (USA 219) 04 Jun 00:09:12 00:13:43 83° 246° (WSW) 00:18:11 437.305
TISAT 1 04 Jun 00:12:06 00:16:11 46° 70° (ENE) 00:20:19 437.305
HUMSAT D 04 Jun 00:13:03 00:15:06 13° 273° (W) 00:16:56 437.325/437.525
ISS 04 Jun 00:14:15 00:17:23 42° 1° (N) 00:20:30 145.825
CUBEBUG 1 04 Jun 00:20:28 00:24:30 34° 264° (W) 00:28:33 437.445
PHONESAT 2.4 04 Jun 00:23:38 00:25:42 15° 161° (SSE) 00:27:49 2401.200-2431.200
SPROUT 04 Jun 00:23:54 00:28:14 82° 77° (ENE) 00:32:37 437.525
TIGRISAT 04 Jun 00:27:03 00:31:17 51° 289° (WNW) 00:35:24 435.000
BEESAT 2 04 Jun 00:32:30 00:36:36 60° 48° (NE) 00:40:38 435.950
ITUPSAT 1 04 Jun 00:32:42 00:35:44 18° 59° (ENE) 00:38:56 437.325
BEESAT 04 Jun 00:34:21 00:37:31 18° 60° (ENE) 00:40:49 436.000
QB50P1 04 Jun 00:39:27 00:43:45 77° 286° (WNW) 00:47:59 145.935-145.965
50 SAT 04 Jun 00:39:50 00:40:18 10° 274° (W) 00:40:32 437.505
SWISSCUBE 04 Jun 00:43:43 00:47:23 23° 62° (ENE) 00:51:11 437.505
POLYITAN 1 04 Jun 00:46:35 00:50:51 65° 287° (WNW) 00:55:02 437.675
CUSAT 1 04 Jun 00:48:24 00:52:59 21° 280° (W) 00:56:40 437.405
UNISAT 6 04 Jun 00:51:52 00:55:40 29° 294° (WNW) 00:59:21 437.425
VELOX 1 04 Jun 00:52:01 00:53:09 11° 275° (W) 00:54:01 145.980
GONETS M04 04 Jun 00:52:21 01:00:51 55° 269° (W) 01:09:13
NANOSAT C BR1 04 Jun 01:07:35 01:11:37 41° 291° (WNW) 01:15:36 145.865
BUGSAT 1 04 Jun 01:08:39 01:12:52 56° 288° (WNW) 01:17:00 437.445
BEESAT 3 04 Jun 01:09:16 01:13:17 53° 237° (WSW) 01:17:11 437.485
DANDE 04 Jun 01:18:24 01:23:02 19° 282° (WNW) 01:26:48 436.750
VERMONT LUNAR 04 Jun 01:19:02 01:21:34 21° 184° (S) 01:24:05 437.305
AIST 2 04 Jun 01:20:20 01:24:31 55° 47° (NE) 01:28:38 435.215
QB50P2 04 Jun 01:22:42 01:26:27 29° 293° (WNW) 01:30:06 145.880/145.840
DUCHIFAT 1 04 Jun 01:27:00 01:30:40 28° 294° (WNW) 01:34:15 145.980
KKS-1 04 Jun 01:27:46 01:29:16 12° 56° (ENE) 01:30:56 437.445
POPSAT HIP 1 04 Jun 01:32:47 01:36:18 24° 295° (WNW) 01:39:43 437.405
ANTELSAT 04 Jun 01:36:56 01:38:56 13° 302° (WNW) 01:40:46 437.575/2403.000
SO-50 04 Jun 01:42:16 01:46:51 52° 122° (ESE) 01:51:37 436.795
PCSat 04 Jun 01:45:08 01:49:36 25° 324° (NW) 01:54:00 145.827
Cosmos 2499 04 Jun 01:46:31 01:53:37 78° 79° (E) 02:00:56 435.465 / 435.565
TISAT 1 04 Jun 01:49:01 01:52:14 20° 269° (W) 01:55:20 437.305
ISS 04 Jun 01:50:46 01:54:03 79° 23° (NNE) 01:57:18 145.825
PHONESAT 2.4 04 Jun 02:00:18 02:03:09 23° 178° (S) 02:06:01 2401.200-2431.200
Oscar 19 04 Jun 02:01:51 02:06:24 31° 94° (E) 02:10:57 437.125/150
SPROUT 04 Jun 02:03:20 02:05:00 12° 274° (W) 02:06:27 437.525
STARS 04 Jun 02:07:57 02:10:50 18° 61° (ENE) 02:13:51 437.465
